Time,TemperatureF,DewpointF,PressureIn,WindDirection,WindDirectionDegrees,WindSpeedMPH,WindSpeedGustMPH,Humidity,HourlyPrecipIn,Conditions,Clouds,dailyrainin,SoftwareType,DateUTC
2013-02-02 00:30:00,24.0,13.0,30.39,North,5,0.0,2.0,63,0.00,,,0.00,weatherlink.com 1.10,2013-02-02 02:30:00,
2013-02-02 00:46:00,23.5,11.0,30.39,North,5,2.0,3.0,59,0.00,,,0.00,weatherlink.com 1.10,2013-02-02 02:46:00,
2013-02-02 01:04:00,23.3,12.0,30.40,SW,235,2.0,4.0,61,0.00,,,0.00,weatherlink.com 1.10,2013-02-02 03:04:00,
2013-02-02 01:20:00,23.1,10.0,30.39,SW,233,0.0,0.0,56,0.00,,,0.00,weatherlink.com 1.10,2013-02-02 03:20:00,
2013-02-02 01:36:00,23.8,10.0,30.39,SW,233,0.0,1.0,55,0.00,,,0.00,weatherlink.com 1.10,2013-02-02 03:36:00,
2013-02-02 01:53:00,21.7,12.0,30.39,SW,233,1.0,2.0,66,0.00,,,0.00,weatherlink.com 1.10,2013-02-02 03:53:00,
2013-02-02 02:09:00,20.9,12.0,30.39,SW,233,0.0,0.0,68,0.00,,,0.00,weatherlink.com 1.10,2013-02-02 04:09:00,
2013-02-02 02:26:00,22.1,11.0,30.39,SW,233,0.0,2.0,62,0.00,,,0.00,weatherlink.com 1.10,2013-02-02 04:26:00,
2013-02-02 02:42:00,20.8,13.0,30.40,SW,233,0.0,0.0,71,0.00,,,0.00,weatherlink.com 1.10,2013-02-02 04:42:00,
2013-02-02 02:58:00,21.3,15.0,30.41,SW,233,0.0,1.0,75,0.00,,,0.00,weatherlink.com 1.10,2013-02-02 04:58:00,
2013-02-02 03:15:00,20.8,14.0,30.40,SW,233,0.0,0.0,75,0.00,,,0.00,weatherlink.com 1.10,2013-02-02 05:15:00,
2013-02-02 03:31:00,21.1,15.0,30.40,SW,233,0.0,2.0,77,0.00,,,0.00,weatherlink.com 1.10,2013-02-02 05:31:00,
2013-02-02 03:48:00,21.1,15.0,30.40,SW,233,0.0,0.0,78,0.00,,,0.00,weatherlink.com 1.10,2013-02-02 05:48:00,
2013-02-02 04:05:00,21.0,16.0,30.39,SW,233,0.0,0.0,79,0.00,,,0.00,weatherlink.com 1.10,2013-02-02 06:05:00,
2013-02-02 04:21:00,20.6,16.0,30.40,SW,233,0.0,0.0,81,0.00,,,0.00,weatherlink.com 1.10,2013-02-02 06:21:00,
2013-02-02 04:39:00,20.4,15.0,30.39,SW,233,0.0,0.0,81,0.00,,,0.00,weatherlink.com 1.10,2013-02-02 06:39:00,
2013-02-02 04:54:00,20.7,16.0,30.40,SW,233,1.0,2.0,83,0.00,,,0.00,weatherlink.com 1.10,2013-02-02 06:54:00,
2013-02-02 05:10:00,20.9,16.0,30.40,SW,233,0.0,1.0,81,0.00,,,0.00,weatherlink.com 1.10,2013-02-02 07:10:00,
2013-02-02 05:27:00,20.6,16.0,30.40,SW,233,0.0,0.0,83,0.00,,,0.00,weatherlink.com 1.10,2013-02-02 07:27:00,
2013-02-02 05:43:00,20.3,16.0,30.39,SW,233,0.0,0.0,82,0.00,,,0.00,weatherlink.com 1.10,2013-02-02 07:43:00,
2013-02-02 05:59:00,20.5,16.0,30.40,SW,233,0.0,0.0,82,0.00,,,0.00,weatherlink.com 1.10,2013-02-02 07:59:00,
2013-02-02 06:16:00,20.3,16.0,30.39,SW,233,0.0,0.0,83,0.00,,,0.00,weatherlink.com 1.10,2013-02-02 08:16:00,
2013-02-02 06:33:00,20.0,16.0,30.39,SW,233,0.0,2.0,83,0.00,,,0.00,weatherlink.com 1.10,2013-02-02 08:33:00,
2013-02-02 06:50:00,19.8,15.0,30.38,West,273,0.0,2.0,83,0.00,,,0.00,weatherlink.com 1.10,2013-02-02 08:50:00,
2013-02-02 07:06:00,19.7,16.0,30.39,West,273,0.0,1.0,84,0.00,,,0.00,weatherlink.com 1.10,2013-02-02 09:06:00,
2013-02-02 07:23:00,20.0,16.0,30.39,West,273,0.0,2.0,84,0.00,,,0.00,weatherlink.com 1.10,2013-02-02 09:23:00,
2013-02-02 07:44:00,20.5,16.0,30.39,West,272,0.0,1.0,84,0.00,,,0.00,weatherlink.com 1.10,2013-02-02 09:44:00,
2013-02-02 07:56:00,20.4,17.0,30.39,West,272,0.0,2.0,85,0.00,,,0.00,weatherlink.com 1.10,2013-02-02 09:56:00,
2013-02-02 08:13:00,19.9,16.0,30.39,West,272,0.0,1.0,85,0.00,,,0.00,weatherlink.com 1.10,2013-02-02 10:13:00,
2013-02-02 08:29:00,19.7,16.0,30.39,West,273,0.0,2.0,85,0.00,,,0.00,weatherlink.com 1.10,2013-02-02 10:29:00,
2013-02-02 08:45:00,19.4,16.0,30.40,West,273,0.0,2.0,85,0.00,,,0.00,weatherlink.com 1.10,2013-02-02 10:45:00,
2013-02-02 09:02:00,19.1,16.0,30.40,West,272,0.0,1.0,86,0.00,,,0.00,weatherlink.com 1.10,2013-02-02 11:02:00,
2013-02-02 09:19:00,18.7,15.0,30.40,West,272,0.0,2.0,87,0.00,,,0.00,weatherlink.com 1.10,2013-02-02 11:19:00,
2013-02-02 09:35:00,18.8,16.0,30.41,West,272,0.0,2.0,88,0.00,,,0.00,weatherlink.com 1.10,2013-02-02 11:35:00,
2013-02-02 09:52:00,18.6,15.0,30.41,West,273,0.0,1.0,87,0.00,,,0.00,weatherlink.com 1.10,2013-02-02 11:52:00,
2013-02-02 10:08:00,18.1,15.0,30.42,West,272,2.0,2.0,88,0.00,,,0.00,weatherlink.com 1.10,2013-02-02 12:08:00,
2013-02-02 11:04:00,19.1,16.0,30.43,West,272,0.0,0.0,89,0.00,,,0.00,weatherlink.com 1.10,2013-02-02 13:04:00,
2013-02-02 11:21:00,21.8,19.0,30.43,West,272,1.0,2.0,87,0.00,,,0.00,weatherlink.com 1.10,2013-02-02 13:21:00,
2013-02-02 11:37:00,24.7,21.0,30.43,West,273,0.0,0.0,84,0.00,,,0.00,weatherlink.com 1.10,2013-02-02 13:37:00,
2013-02-02 11:54:00,26.8,18.0,30.43,NW,317,3.0,4.0,70,0.00,,,0.00,weatherlink.com 1.10,2013-02-02 13:54:00,
2013-02-02 12:10:00,28.7,18.0,30.42,SSW,204,1.0,6.0,64,0.00,,,0.00,weatherlink.com 1.10,2013-02-02 14:10:00,
2013-02-02 12:27:00,28.8,16.0,30.42,SSW,204,0.0,3.0,59,0.00,,,0.00,weatherlink.com 1.10,2013-02-02 14:27:00,
2013-02-02 12:43:00,29.9,15.0,30.41,West,272,0.0,6.0,54,0.00,,,0.00,weatherlink.com 1.10,2013-02-02 14:43:00,
2013-02-02 12:59:00,30.5,15.0,30.40,WNW,294,0.0,7.0,53,0.00,,,0.00,weatherlink.com 1.10,2013-02-02 14:59:00,
2013-02-02 13:16:00,31.1,14.0,30.39,WSW,244,2.0,10.0,48,0.00,,,0.00,weatherlink.com 1.10,2013-02-02 15:16:00,
2013-02-02 13:32:00,32.0,15.0,30.38,SSW,205,4.0,8.0,50,0.00,,,0.00,weatherlink.com 1.10,2013-02-02 15:32:00,
2013-02-02 13:49:00,32.7,14.0,30.37,SSW,192,0.0,7.0,46,0.00,,,0.00,weatherlink.com 1.10,2013-02-02 15:49:00,
2013-02-02 14:06:00,33.3,13.0,30.36,West,261,9.0,9.0,43,0.00,,,0.00,weatherlink.com 1.10,2013-02-02 16:06:00,
2013-02-02 14:22:00,33.5,13.0,30.35,West,273,3.0,12.0,43,0.00,,,0.00,weatherlink.com 1.10,2013-02-02 16:22:00,
2013-02-02 14:39:00,35.1,13.0,30.33,WSW,248,6.0,10.0,40,0.00,,,0.00,weatherlink.com 1.10,2013-02-02 16:39:00,
2013-02-02 14:55:00,35.8,15.0,30.32,South,176,6.0,8.0,42,0.00,,,0.00,weatherlink.com 1.10,2013-02-02 16:55:00,
2013-02-02 15:11:00,36.9,15.0,30.31,WSW,249,5.0,8.0,41,0.00,,,0.00,weatherlink.com 1.10,2013-02-02 17:11:00,
2013-02-02 15:28:00,37.7,17.0,30.30,SSW,193,2.0,9.0,42,0.00,,,0.00,weatherlink.com 1.10,2013-02-02 17:28:00,
2013-02-02 15:44:00,37.8,17.0,30.28,SSW,195,2.0,10.0,42,0.00,,,0.00,weatherlink.com 1.10,2013-02-02 17:44:00,
2013-02-02 16:01:00,39.1,17.0,30.27,West,273,1.0,8.0,40,0.00,,,0.00,weatherlink.com 1.10,2013-02-02 18:01:00,
2013-02-02 16:17:00,39.8,15.0,30.25,SW,228,1.0,11.0,36,0.00,,,0.00,weatherlink.com 1.10,2013-02-02 18:17:00,
2013-02-02 16:34:00,40.3,16.0,30.23,SW,222,0.0,9.0,37,0.00,,,0.00,weatherlink.com 1.10,2013-02-02 18:34:00,
2013-02-02 16:51:00,39.5,17.0,30.23,SW,222,0.0,7.0,39,0.00,,,0.00,weatherlink.com 1.10,2013-02-02 18:51:00,
2013-02-02 17:07:00,39.6,17.0,30.21,South,188,3.0,5.0,40,0.00,,,0.00,weatherlink.com 1.10,2013-02-02 19:07:00,
2013-02-02 17:24:00,39.3,17.0,30.21,South,182,4.0,8.0,40,0.00,,,0.00,weatherlink.com 1.10,2013-02-02 19:24:00,
2013-02-02 17:40:00,39.3,17.0,30.20,South,174,4.0,7.0,40,0.00,,,0.00,weatherlink.com 1.10,2013-02-02 19:40:00,
2013-02-02 17:56:00,39.4,16.0,30.19,SSE,164,8.0,9.0,39,0.00,,,0.00,weatherlink.com 1.10,2013-02-02 19:56:00,
2013-02-02 18:12:00,40.2,18.0,30.18,South,172,5.0,12.0,40,0.00,,,0.00,weatherlink.com 1.10,2013-02-02 20:12:00,
2013-02-02 18:29:00,40.7,17.0,30.18,SSE,162,7.0,11.0,38,0.00,,,0.00,weatherlink.com 1.10,2013-02-02 20:29:00,
2013-02-02 18:46:00,39.7,17.0,30.17,SSW,198,6.0,9.0,40,0.00,,,0.00,weatherlink.com 1.10,2013-02-02 20:46:00,
2013-02-02 19:02:00,40.7,17.0,30.16,SSW,194,7.0,8.0,38,0.00,,,0.00,weatherlink.com 1.10,2013-02-02 21:02:00,
2013-02-02 19:19:00,40.5,17.0,30.16,SSW,198,4.0,10.0,38,0.00,,,0.00,weatherlink.com 1.10,2013-02-02 21:19:00,
2013-02-02 19:35:00,41.1,18.0,30.15,South,182,4.0,8.0,39,0.00,,,0.00,weatherlink.com 1.10,2013-02-02 21:35:00,
2013-02-02 19:52:00,40.4,18.0,30.14,SSW,209,4.0,7.0,40,0.00,,,0.00,weatherlink.com 1.10,2013-02-02 21:52:00,
2013-02-02 20:08:00,40.0,18.0,30.14,SSW,198,1.0,6.0,40,0.00,,,0.00,weatherlink.com 1.10,2013-02-02 22:08:00,
2013-02-02 20:25:00,39.8,18.0,30.14,SW,216,0.0,3.0,41,0.00,,,0.00,weatherlink.com 1.10,2013-02-02 22:25:00,
2013-02-02 20:41:00,39.5,18.0,30.13,SW,216,0.0,2.0,42,0.00,,,0.00,weatherlink.com 1.10,2013-02-02 22:41:00,
2013-02-02 20:57:00,38.7,19.0,30.12,SW,216,0.0,0.0,45,0.00,,,0.00,weatherlink.com 1.10,2013-02-02 22:57:00,
2013-02-02 21:13:00,38.2,20.0,30.12,SW,215,0.0,0.0,47,0.00,,,0.00,weatherlink.com 1.10,2013-02-02 23:13:00,
2013-02-02 21:30:00,37.2,20.0,30.11,SW,216,0.0,1.0,50,0.00,,,0.00,weatherlink.com 1.10,2013-02-02 23:30:00,
2013-02-02 21:46:00,36.3,21.0,30.10,SW,216,0.0,0.0,53,0.00,,,0.00,weatherlink.com 1.10,2013-02-02 23:46:00,
2013-02-02 22:03:00,35.6,23.0,30.11,SW,216,0.0,0.0,59,0.00,,,0.00,weatherlink.com 1.10,2013-02-03 00:03:00,
2013-02-02 22:20:00,34.7,22.0,30.10,SW,216,0.0,0.0,60,0.00,,,0.00,weatherlink.com 1.10,2013-02-03 00:20:00,
2013-02-02 22:36:00,34.4,22.0,30.10,SW,215,0.0,0.0,59,0.00,,,0.00,weatherlink.com 1.10,2013-02-03 00:36:00,
2013-02-02 22:52:00,34.4,23.0,30.11,SW,216,0.0,0.0,63,0.00,,,0.00,weatherlink.com 1.10,2013-02-03 00:52:00,
2013-02-02 23:09:00,34.9,25.0,30.11,SW,215,0.0,1.0,66,0.00,,,0.00,weatherlink.com 1.10,2013-02-03 01:09:00,
2013-02-02 23:25:00,35.1,26.0,30.11,WSW,240,0.0,0.0,69,0.00,,,0.00,weatherlink.com 1.10,2013-02-03 01:25:00,
2013-02-02 23:41:00,35.2,27.0,30.12,WSW,240,0.0,0.0,72,0.00,,,0.00,weatherlink.com 1.10,2013-02-03 01:41:00,
2013-02-02 23:58:00,36.2,30.0,30.11,West,280,0.0,3.0,78,0.00,,,0.00,weatherlink.com 1.10,2013-02-03 01:58:00,